Location: North Runcton
(52.7000°N, 0.4333°E)
Time: 07:24:34
(UTC+00:00)

Cosmos 2344 - Pass Details

Date: 19 May 2025
Orbit: 1200 x 3042 km, 63.3° (Epoch: 18 June)

Event Time Altitude Azimuth Distance (km) Brightness Sun altitude
Rises 21:25:09 0° 245° (WSW) 4,271 6.5 -10.4°
Reaches altitude 10° 21:28:03 10° 250° (WSW) 3,211 5.9 -10.7°
Maximum altitude 21:35:16 58° 329° (NNW) 1,383 4.2 -11.3°
Drops below altitude 10° 21:42:47 10° 49° (NE) 3,342 5.9 -11.9°
Sets 21:45:52 0° 53° (NE) 4,461 6.5 -12.1°
